Weather History for Menomonie, WI

Change the Weather History Date:

Saturday, February 1, 2014

  Actual Average (KEAU) Record (KEAU)
Temperature  
Mean Temperature 4 °F 15 °F  
Max Temperature 18 °F 25 °F 49 °F (1931)
Min Temperature -10 °F 6 °F -32 °F (1918)
Degree Days  
Heating Degree Days 61 50  
Month to date heating degree days 50  
Since 1 July heating degree days 4794  
Cooling Degree Days 0 0  
Month to date cooling degree days 0  
Year to date cooling degree days 0  
Moisture  
Dew Point -2 °F    
Average Humidity 70    
Maximum Humidity 77    
Minimum Humidity 58    
Precipitation  
Precipitation 0.00 in 0.03 in 1.09 in (1933)
Month to date precipitation 0.03  
Year to date precipitation 0.92  
Snow  
Snow 0.00 in 0.30 in 7.50 in (2002)
Month to date snowfall 0.3  
Since 1 July snowfall 29.3  
Snow Depth -    
Sea Level Pressure  
Sea Level Pressure 30.01 in    
Wind  
Wind Speed 3 mph (West)    
Max Wind Speed 14 mph    
Max Gust Speed 18 mph    
Visibility 10 miles    
Events Snow    
T = Trace of Precipitation, MM = Missing Value Source: NWS Daily Summary

Daily Weather History Graph

Daily Weather History Graph

Search for Another Location

Airport:

Trip Planner

Search our weather history database for the weather conditions in past years. The results will help you decide how hot, cold, wet, or windy it might be!

Date:

Astronomy

Feb. 01, 2014 Rise Set
Actual Time 7:26 AM CST 5:15 PM CST
Civil Twilight 6:55 AM CST 5:46 PM CST
Nautical Twilight 6:20 AM CST 6:22 PM CST
Astronomical Twilight 5:46 AM CST 6:56 PM CST
Moon 8:09 AM CST 8:00 PM CST
Length of Visible Light 10h 51m
Length of Day
9h 48m
Waxing Crescent, 5% of the Moon is Illuminated
Feb 1
Waxing Crescent
Feb 6
First Quarter
Feb 14
Full
Feb 22
Last Quarter
Mar 1
New

Hourly Weather History & Observations

Time (CST) Temp. Windchill Dew Point Humidity Pressure Visibility Wind Dir Wind Speed Gust Speed Precip Events Conditions
12:15 AM -10.3 °F - -15.7 °F 77% 30.06 in 10.0 mi Calm Calm - N/A   Clear
12:35 AM -9.0 °F -20.4 °F -14.6 °F 76% 30.04 in 10.0 mi East 4.6 mph - N/A   Clear
12:55 AM -8.7 °F -20.0 °F -14.1 °F 77% 30.03 in 10.0 mi East 4.6 mph - N/A   Clear
1:15 AM -9.2 °F -18.4 °F -14.8 °F 76% 30.03 in 10.0 mi East 3.5 mph - N/A   Clear
1:35 AM -8.7 °F -17.8 °F -14.4 °F 76% 30.02 in 10.0 mi East 3.5 mph - N/A   Clear
1:55 AM -7.8 °F - -13.2 °F 77% 30.01 in 10.0 mi Calm Calm - N/A   Clear
2:15 AM -6.9 °F - -12.3 °F 77% 30.02 in 10.0 mi Calm Calm - N/A   Clear
2:35 AM -5.3 °F -13.8 °F -10.7 °F 77% 30.03 in 10.0 mi East 3.5 mph - N/A   Clear
2:55 AM -4.9 °F -15.6 °F -10.5 °F 77% 30.03 in 10.0 mi East 4.6 mph - N/A   Clear
3:15 AM -4.5 °F -15.2 °F -10.3 °F 76% 30.02 in 10.0 mi ESE 4.6 mph - N/A   Clear
3:35 AM -4.4 °F - -10.3 °F 76% 30.01 in 10.0 mi Calm Calm - N/A   Clear
3:55 AM -4.5 °F - -10.5 °F 76% 30.01 in 10.0 mi Calm Calm - N/A   Clear
4:15 AM -4.7 °F - -10.7 °F 76% 30.00 in 10.0 mi Calm Calm - N/A   Clear
4:35 AM -4.4 °F - -10.3 °F 76% 30.00 in 10.0 mi Calm Calm - N/A   Clear
4:55 AM -3.8 °F -14.4 °F -9.8 °F 76% 30.00 in 10.0 mi ESE 4.6 mph - N/A   Scattered Clouds
5:15 AM -4.0 °F -14.6 °F -9.8 °F 76% 30.00 in 10.0 mi ESE 4.6 mph - N/A   Mostly Cloudy
5:35 AM -4.0 °F -16.3 °F -9.9 °F 76% 29.98 in 10.0 mi ESE 5.8 mph - N/A   Scattered Clouds
5:55 AM -4.0 °F - -9.8 °F 76% 29.97 in 10.0 mi Calm Calm - N/A   Scattered Clouds
6:15 AM -3.3 °F - -9.2 °F 76% 29.97 in 10.0 mi Calm Calm - N/A   Clear
6:35 AM -3.5 °F -11.8 °F -9.4 °F 76% 29.96 in 10.0 mi East 3.5 mph - N/A   Scattered Clouds
6:55 AM -3.3 °F - -9.4 °F 75% 29.96 in 10.0 mi Calm Calm - N/A   Mostly Cloudy
7:15 AM -3.1 °F - -9.0 °F 76% 29.96 in 10.0 mi Calm Calm - N/A   Scattered Clouds
7:35 AM -2.2 °F - -8.5 °F 75% 29.96 in 10.0 mi Calm Calm - N/A   Mostly Cloudy
7:55 AM -1.5 °F - -7.8 °F 75% 29.96 in 10.0 mi Calm Calm - N/A   Overcast
8:15 AM -0.9 °F - -7.6 °F 73% 29.96 in 10.0 mi Calm Calm - N/A   Mostly Cloudy
8:35 AM -0.4 °F - -7.1 °F 73% 29.97 in 10.0 mi Calm Calm - N/A   Mostly Cloudy
8:55 AM 0.7 °F - -6.7 °F 71% 29.97 in 10.0 mi Calm Calm - N/A   Mostly Cloudy
9:15 AM 1.4 °F - -6.5 °F 69% 29.97 in 10.0 mi Calm Calm - N/A   Mostly Cloudy
9:35 AM 3.0 °F -6.4 °F -5.3 °F 68% 29.97 in 10.0 mi ESE 4.6 mph - N/A   Overcast
9:55 AM 3.7 °F -8.4 °F -4.7 °F 68% 29.96 in 10.0 mi East 6.9 mph - N/A   Overcast
10:15 AM 4.5 °F -4.7 °F -4.2 °F 67% 29.97 in 10.0 mi ESE 4.6 mph - N/A   Overcast
10:35 AM 4.8 °F - -4.0 °F 67% 29.97 in 10.0 mi Calm Calm - N/A   Overcast
10:55 AM 5.7 °F - -3.1 °F 67% 29.97 in 10.0 mi Calm Calm - N/A   Overcast
11:15 AM 6.3 °F - -2.2 °F 68% 29.97 in 5.0 mi Calm Calm - N/A Snow Light Snow
11:35 AM 7.3 °F - -1.1 °F 68% 29.97 in 10.0 mi Calm Calm - N/A   Overcast
11:55 AM 9.0 °F -0.9 °F -1.1 °F 64% 29.96 in 10.0 mi SSE 5.8 mph - N/A   Overcast
12:15 PM 9.5 °F 3.0 °F -1.1 °F 62% 29.96 in 10.0 mi South 3.5 mph - N/A   Overcast
12:35 PM 10.4 °F - -0.8 °F 61% 29.96 in 10.0 mi Calm Calm - N/A   Overcast
12:55 PM 11.8 °F 2.5 °F 0.7 °F 61% 29.95 in 10.0 mi SSW 5.8 mph - N/A   Overcast
1:15 PM 12.2 °F - 1.0 °F 61% 29.95 in 10.0 mi Calm Calm - N/A Snow Light Snow
1:35 PM 14.0 °F - 2.5 °F 60% 29.95 in 10.0 mi Calm Calm - N/A   Overcast
1:55 PM 14.5 °F - 2.7 °F 59% 29.95 in 10.0 mi Calm Calm - N/A   Overcast
2:15 PM 16.3 °F - 3.9 °F 58% 29.95 in 10.0 mi Calm Calm - N/A   Scattered Clouds
2:35 PM 15.1 °F 9.4 °F 3.6 °F 60% 29.95 in 10.0 mi East 3.5 mph - N/A   Clear
2:55 PM 14.7 °F 9.0 °F 3.7 °F 62% 29.95 in 10.0 mi East 3.5 mph - N/A   Clear
3:15 PM 14.7 °F - 3.2 °F 60% 29.96 in 10.0 mi Calm Calm - N/A   Clear
3:35 PM 14.4 °F - 3.9 °F 63% 29.97 in 10.0 mi Calm Calm - N/A   Clear
3:55 PM 18.9 °F 10.8 °F 7.7 °F 62% 29.98 in 10.0 mi WNW 5.8 mph - N/A   Clear
4:15 PM 18.5 °F 9.3 °F 7.7 °F 63% 29.98 in 10.0 mi West 6.9 mph - N/A   Clear
4:35 PM 18.3 °F 11.5 °F 7.7 °F 63% 29.99 in 10.0 mi West 4.6 mph - N/A   Clear
4:55 PM 18.0 °F 9.8 °F 7.5 °F 64% 29.99 in 10.0 mi WNW 5.8 mph - N/A   Clear
5:15 PM 15.8 °F - 6.1 °F 66% 30.00 in 10.0 mi Calm Calm - N/A   Clear
5:35 PM 14.0 °F 6.5 °F 6.8 °F 73% 30.00 in 10.0 mi West 4.6 mph - N/A   Clear
5:55 PM 13.8 °F 6.2 °F 5.9 °F 71% 30.01 in 10.0 mi West 4.6 mph - N/A   Clear
6:15 PM 13.5 °F 7.5 °F 5.9 °F 72% 30.02 in 10.0 mi West 3.5 mph - N/A   Clear
6:35 PM 12.7 °F 3.6 °F 5.7 °F 74% 30.03 in 10.0 mi West 5.8 mph - N/A   Clear
6:55 PM 11.3 °F 5.1 °F 5.0 °F 76% 30.04 in 10.0 mi West 3.5 mph - N/A   Clear
7:15 PM 12.0 °F 2.7 °F 5.5 °F 75% 30.05 in 10.0 mi West 5.8 mph - N/A   Mostly Cloudy
7:35 PM 12.9 °F 2.6 °F 5.9 °F 74% 30.05 in 10.0 mi West 6.9 mph - N/A   Overcast
7:55 PM 14.0 °F 3.9 °F 6.6 °F 72% 30.06 in 10.0 mi West 6.9 mph - N/A   Overcast
8:15 PM 13.8 °F 6.2 °F 6.8 °F 74% 30.07 in 10.0 mi West 4.6 mph - N/A   Overcast
8:35 PM 13.6 °F 4.6 °F 7.0 °F 75% 30.08 in 10.0 mi WNW 5.8 mph - N/A   Overcast
8:55 PM 14.7 °F 3.8 °F 6.4 °F 70% 30.08 in 10.0 mi WNW 8.1 mph - N/A   Overcast
9:15 PM 14.2 °F 3.1 °F 5.2 °F 67% 30.09 in 10.0 mi WNW 8.1 mph - N/A   Overcast
9:35 PM 14.2 °F 2.2 °F 4.6 °F 66% 30.09 in 10.0 mi WNW 9.2 mph - N/A   Overcast
9:55 PM 13.6 °F 0.0 °F 3.6 °F 64% 30.10 in 10.0 mi WNW 11.5 mph 18.4 mph N/A   Mostly Cloudy
10:15 PM 12.4 °F 0.9 °F 3.0 °F 66% 30.11 in 10.0 mi WNW 8.1 mph - N/A   Clear
10:35 PM 11.3 °F -2.2 °F 3.2 °F 70% 30.12 in 10.0 mi West 10.4 mph - N/A   Clear
10:55 PM 10.4 °F -5.4 °F 1.9 °F 69% 30.13 in 10.0 mi West 13.8 mph 17.3 mph N/A   Clear
11:15 PM 9.0 °F -4.2 °F 0.5 °F 69% 30.15 in 10.0 mi West 9.2 mph - N/A   Clear
11:35 PM 7.9 °F -7.2 °F -0.8 °F 68% 30.15 in 10.0 mi West 11.5 mph - N/A   Clear
11:55 PM 6.8 °F -7.8 °F -2.0 °F 67% 30.16 in 10.0 mi West 10.4 mph - N/A   Clear